sat.trackr.live / text

‹ back to catalog

ONEWEB-0650

NORAD 55813 · 2023-029T

PAYLOAD ACTIVE UNKNOWN

§ Identity

Operator
Country
UK
Launch date
2023-03-09
Launch site
AFETR
Launch vehicle
Mass (kg)
RCS (m²)

Purposes: comms

External: N2YO · Heavens-Above · Gunter

§ Orbital elements

Epoch: 2026-05-25T04:20:43.037088Z

Period
109.11 min
Inclination
87.9149°
Eccentricity
0.0001357
Mean motion
13.19725732 rev/d
Perigee alt
1,184.7 km
Apogee alt
1,186.8 km
Semi-major
7,563.9 km
B*
1.0926e-4
RAAN
309.5626°
Arg perigee
89.7444°
Mean anomaly
270.3844°
Rev number
15,586

§ Raw data

ONEWEB-06501 55813U 23029T   26145.18105367  .00000057  00000+0  10926-3 0  99992 55813  87.9149 309.5626 0001357  89.7444 270.3844 13.19725732155868

JSON: /api/v1/satellites/55813 · /tle

For live sub-satellite position, see the globe view (requires WebGL).

§ Visibility from observer

Set your observer location to see the next 7 days of passes ≥ 10°. The values pass through the URL so the page stays shareable.

No JS? Fill the form by hand. The geolocation button needs JavaScript.